CAPE
1451 2048 1750 1942 2172 2355 2904 1880 1904 1516 1678 1295 1653 953 1299 1272 1007 1453 988 1460 2341 2287 2217 2007 1581 1493 1707 1668 1601 1225 1220 1155 810 828 861 854 743 598 559 465 446 526 538
2278 2078 1668 1580 1780 2342 1775 2228 1737 1511 1372 1681 1530 1228 1092 1293 1222 1315 996 1296 1581 2411 2605 2301 1936 1624 1540 1530 1554 1385 1093 663 369 645 725 883 817 1046 737 498 530 486 481
1743 1610 1371 1244 1927 2572 2004 2065 1867 1900 1602 1653 1823 1482 1355 1189 1728 618 1444 1969 1216 2144 2693 2593 2290 1971 1587 1825 1923 1449 1347 951 671 749 709 884 1020 995 1009 925 723 506 577
1665 2025 1302 1150 1480 2161 2095 1607 1405 1365 1603 1668 1717 1449 1375 1094 1238 1319 1137 973 871 985 2106 2606 2350 2037 1981 1628 1845 1532 1595 905 871 758 718 830 814 1028 989 1021 927 962 791
1615 1568 1350 1149 1505 1699 2152 2154 970 1258 1234 1312 1454 1527 1245 1315 1658 1171 1516 984 862 1220 1227 1835 1815 1615 1742 1039 1350 1455 1054 974 909 778 694 671 867 901 886 964 957 971 1025
1294 1397 1394 1287 1272 1012 1823 2074 1291 993 900 801 1227 1163 918 1468 2082 1846 1144 882 1007 1384 1172 778 722 926 1731 1181 1019 1474 1051 636 1169 1063 691 627 848 1031 973 920 881 980 1035
1058 1110 1041 1196 1447 1362 1388 1626 1515 1064 1129 937 847 772 587 1163 1343 1691 1228 1002 742 1146 1161 885 692 574 413 915 907 1761 1327 1175 881 1057 903 545 1000 1013 1010 769 749 907 1043
895 874 951 1265 1146 790 1243 1518 1214 1058 1375 967 610 622 308 905 1143 1300 1283 1275 651 779 949 870 333 261 371 524 1003 1803 1560 1433 1148 1019 553 809 815 952 632 782 632 866 892
773 817 878 1079 1057 1486 939 1244 1043 659 1060 1104 901 322 275 722 962 1352 1267 965 704 626 678 672 606 506 352 541 830 1219 1664 1644 1683 1580 1105 1216 998 1000 605 641 614 631 891
1000 805 816 883 1264 1346 664 1366 698 248 421 820 432 660 355 1028 473 553 817 1252 1082 725 484 558 586 787 647 460 902 937 703 784 1399 1230 1453 1648 1241 881 738 728 733 543 864
1164 747 712 798 1227 1306 1106 851 1060 492 423 323 223 373 428 526 909 396 604 783 706 864 579 492 633 631 797 611 816 713 855 820 953 1123 1460 1344 1705 1130 1057 1011 797 837 1031
1245 909 654 899 1007 1059 863 618 838 711 552 320 230 168 198 229 640 421 313 440 512 596 664 618 644 458 545 698 717 837 970 721 660 767 1051 1525 1578 1431 1218 959 957 907 999
1240 941 783 806 895 1110 871 827 678 412 421 266 122 145 195 328 517 570 563 373 292 392 480 520 406 404 462 456 687 843 849 609 569 656 682 721 798 901 907 816 748 961 922
1077 988 975 836 678 763 727 510 997 328 467 251 290 446 447 571 547 538 447 337 213 314 312 290 543 555 721 659 754 947 577 483 433 473 530 492 759 726 788 992 1227 1657 1684
1058 938 811 721 574 538 898 492 394 469 230 216 136 172 89 68 413 402 830 999 390 104 154 106 63 448 486 870 807 558 833 371 458 461 464 447 579 577 822 1157 753 326 221
897 692 851 713 412 325 371 370 303 449 254 215 232 331 263 64 335 227 592 905 756 432 143 214 274 378 334 585 643 541 190 95 94 118 193 192 211 198 118 62 52 41 28
358 200 283 895 701 354 291 220 340 218 263 186 242 250 202 192 185 278 361 557 335 454 218 252 210 499 299 342 214 219 36 0 0 0 0 0 0 0 0 0 0 0 0
652 238 205 142 299 287 185 253 210 218 168 160 167 124 74 119 228 299 425 410 542 617 295 203 196 317 261 356 87 71 2 0 0 0 0 0 0 0 0 0 0 0 0
389 340 366 430 257 44 13 0 0 0 0 0 0 0 0 3 32 25 188 268 456 377 383 231 175 241 109 70 165 39 14 0 0 0 0 0 0 0 0 0 0 0 0
364 226 77 84 122 116 24 0 0 0 0 0 0 0 0 0 0 0 54 31 122 157 186 123 108 71 87 188 188 115 19 0 0 0 0 0 0 0 0 0 0 0 0
441 222 30 129 79 11 6 1 0 0 0 0 0 0 0 0 0 0 0 0 0 110 146 105 61 74 108 254 237 101 205 54 0 0 0 0 0 0 0 0 0 0 0
397 239 172 81 60 0 0 0 0 2 0 0 0 0 0 0 0 0 0 0 0 0 110 76 170 102 91 1 0 0 0 0 0 0 0 0 0 0 0 0 0 0 0
232 136 0 0 0 0 0 0 2 14 1 3 1 1 0 0 0 0 0 0 0 0 0 6 5 0 0 0 0 0 0 0 0 0 0 0 0 0 0 0 0 0 0
31 6 3 1 0 0 0 0 5 11 2 0 0 0 0 0 0 0 0 0 0 0 0 0 0 0 0 0 0 0 0 0 0 0 0 0 0 0 0 0 0 0 0
0 0 0 0 0 0 0 0 0 0 0 0 0 0 0 0 0 0 0 0 0 0 0 0 0 0 0 0 0 0 0 0 0 0 0 0 0 0 0 0 0 0 0
0 0 1 0 0 0 0 0 0 0 0 0 0 0 0 0 0 0 0 0 0 0 0 0 0 0 0 0 0 0 0 0 0 0 0 0 0 0 0 1 13 1 0
CIN
-38 -1 -15 -19 -5 -11 -3 -17 -10 -15 -11 -17 -20 -30 -11 -25 -33 -37 -17 -18 -1 0 0 0 0 0 0 0 0 -1 0 0 0 -1 0 0 0 0 -1 0 0 0 -7
0 -3 -2 -23 -18 -11 -34 -11 -14 -19 -29 -14 -21 -31 -28 -32 -40 -33 -48 -33 -21 -1 0 0 0 -1 0 0 0 -1 0 -3 -16 -4 0 -1 -2 0 0 0 0 0 0
-12 -13 -16 -4 -3 -8 -16 -17 -11 -11 -23 -20 -16 -19 -17 -24 -15 -61 -36 -23 -27 -3 0 0 0 -1 -3 0 0 -1 -1 0 -9 -8 -9 -1 0 -1 0 0 0 0 0
-12 -6 -10 -4 -4 -2 -10 -28 -44 -36 -33 -28 -21 -33 -39 -52 -20 -20 -34 -46 -40 -22 -1 0 0 -1 -1 -1 0 0 0 -5 -8 -9 -12 -4 -2 -1 -1 0 0 0 0
-3 -10 -4 -7 -10 -14 -7 -6 -58 -52 -44 -29 -21 -28 -23 -22 -20 -5 -15 -49 -34 -30 -29 -6 -3 -4 0 -4 -2 -3 -10 -9 -10 -8 -7 -9 -1 -3 -2 -1 0 0 0
-22 -4 -3 -7 -16 -19 -12 -4 -28 -58 -60 -45 -21 -39 -53 -30 -15 -20 -30 -11 -12 -18 -36 -50 -39 -7 0 -9 -10 -7 -10 -11 -2 -1 -5 -6 -3 -2 -1 -2 -1 -1 0
-6 -16 0 -10 -9 -11 -18 -22 -19 -40 -26 -31 -11 -41 -54 -34 -26 -20 -38 -35 -33 -17 -21 -31 -32 -25 -19 -9 -19 -3 -3 0 -5 -1 -3 -11 -1 -2 -2 -5 -4 -2 -5
-8 -6 -4 -1 -11 -30 -6 -8 -21 -35 -14 -39 -33 -31 -38 -26 -10 -12 -37 -16 -31 -41 -23 -11 -46 -33 -10 -4 -15 -1 -2 0 0 -2 -28 -12 -12 -4 -13 -7 -9 -4 -1
-9 -7 -4 -5 -15 -3 -15 -10 -25 -55 -15 -26 -49 -52 -31 -8 -11 -26 -20 -24 -23 -20 -39 -31 -16 -8 -25 -22 -5 -5 -2 -2 0 0 -2 -2 -6 -7 -19 -13 -12 -16 -4
-2 -3 -4 -2 -2 -2 -31 -4 -44 -97 -56 -22 -48 -57 -28 -17 -22 -17 -32 -15 -16 -24 -34 -34 -22 -20 -33 -42 -7 -16 -34 -27 -2 -1 0 0 -3 -9 -11 -11 -9 -16 -5
0 -1 -4 -3 -1 0 -10 -20 -7 -48 -100 -56 -62 -55 -35 -41 -32 -20 -12 -27 -37 -16 -34 -48 -26 -21 -22 -39 -28 -14 -24 -38 -23 -8 -2 -3 -1 -5 -4 -3 -7 -6 -3
0 -1 -3 -1 -1 -2 -9 -29 -13 -23 -53 -60 -35 -66 -56 -39 -16 -22 -24 -29 -38 -37 -33 -42 -26 -56 -47 -22 -25 -28 -28 -43 -44 -28 -12 -3 -2 -3 -2 -4 -4 -3 -2
0 0 -2 -1 -1 -1 -8 -9 -12 -44 -49 -50 -67 -48 -51 -55 -32 -26 -19 -29 -46 -45 -37 -19 -62 -72 -43 -60 -33 -25 -33 -60 -57 -37 -28 -20 -18 -10 -5 -8 -14 -5 -8
-2 -2 -1 -1 -3 -3 -10 -18 -9 -43 -32 -66 -46 -42 -55 -34 -20 -31 -31 -31 -45 -32 -47 -59 -45 -49 -45 -57 -43 -52 -66 -81 -76 -53 -40 -49 -19 -19 -22 -14 -9 -2 -1
-3 -1 0 -2 -5 -8 -1 -24 -22 -22 -75 -79 -53 -52 -77 -147 -56 -30 -33 -25 -28 -28 -53 -65 -53 -45 -53 -46 -75 -53 -34 -69 -65 -50 -50 -68 -35 -27 -22 -5 -22 -77 -113
-4 -1 -1 -1 -5 -17 -16 -19 -30 -12 -39 -57 -30 -36 -62 -81 -38 -117 -43 -29 -32 -28 -50 -54 -59 -88 -73 -47 -53 -75 -145 -73 -69 -140 -122 -125 -112 -118 -139 -173 -208 -233 -283
-17 -38 -19 0 0 -11 -23 -15 -5 -31 -19 -32 -25 -38 -38 -47 -53 -33 -56 -40 -35 -37 -40 -72 -81 -49 -39 -24 -82 -100 -86 0 0 0 0 0 0 0 0 0 0 0 0
-3 -12 -16 -13 -10 -4 -6 -8 -9 -10 -18 -20 -26 -48 -68 -61 -39 -40 -27 -27 -49 -38 -64 -45 -38 -40 -54 -30 -93 -148 -46 0 0 0 0 0 0 0 0 0 0 0 0
-3 -5 -8 0 -1 -16 -29 0 0 0 0 0 0 0 0 -77 -75 -97 -69 -67 -46 -38 -35 -59 -54 -61 -87 -93 -66 -180 -274 0 0 0 0 0 0 0 0 0 0 0 0
-1 -1 -18 -14 -10 -1 -24 0 0 0 0 0 0 0 0 0 0 0 -65 -83 -38 -53 -60 -24 -35 -93 -80 -52 -29 -71 -166 0 0 0 0 0 0 0 0 0 0 0 0
-1 -6 -19 -1 -3 -17 -30 -10 0 0 0 0 0 0 0 0 0 0 0 0 0 -69 -40 -26 -23 -36 -17 -10 -11 -71 -18 -97 0 0 0 0 0 0 0 0 0 0 0
-6 -4 -2 -7 -5 0 0 0 0 0 0 0 0 0 0 0 0 0 0 0 0 0 -11 -37 -10 -22 -15 -5 0 0 0 0 0 0 0 0 0 0 0 0 0 0 0
-4 -2 0 0 0 0 0 0 -1 0 0 0 0 0 0 0 0 0 0 0 0 0 0 -97 -77 0 0 0 0 0 0 0 0 0 0 0 0 0 0 0 0 0 0
-31 0 0 0 0 0 0 0 -14 -6 -5 0 0 0 0 0 0 0 0 0 0 0 0 0 0 0 0 0 0 0 0 0 0 0 0 0 0 0 0 0 0 0 0
0 0 0 0 0 0 0 0 0 0 0 0 0 0 0 0 0 0 0 0 0 0 0 0 0 0 0 0 0 0 0 0 0 0 0 0 0 0 0 0 0 0 0
0 0 0 0 0 0 0 0 0 0 0 0 0 0 0 0 0 0 0 0 0 0 0 0 0 0 0 0 0 0 0 0 0 0 0 0 0 0 0 -3 -17 -5 0
Wind_Speed
3 4 3 3 2 3 2 3 3 3 4 6 5 9 9 7 8 4 4 15 15 14 14 14 14 15 14 13 14 13 14 12 10 10 11 11 11 10 10 9 8 8 8
4 3 4 4 3 3 4 2 3 3 3 4 5 6 7 6 7 8 7 8 16 14 14 14 14 15 15 14 13 13 14 14 12 11 11 11 10 11 10 11 10 10 8
5 6 5 5 4 4 5 4 3 2 3 4 6 5 5 6 6 4 4 5 9 15 14 13 14 14 14 14 14 12 13 14 14 12 11 11 11 11 11 11 11 10 9
8 5 5 6 4 3 3 3 3 3 4 4 4 4 4 6 4 7 7 4 7 7 12 13 12 11 13 14 15 13 13 14 14 12 12 11 12 13 12 12 11 11 10
8 7 6 6 7 3 4 3 2 3 2 3 3 2 2 3 4 6 4 10 9 5 5 13 10 11 14 14 12 15 17 15 15 12 12 12 13 13 13 12 12 11 11
10 7 6 7 7 6 4 3 4 4 2 3 3 3 5 5 5 4 4 3 6 7 7 7 6 4 16 16 14 14 17 16 14 11 11 11 13 13 14 14 13 12 12
8 8 7 7 5 5 6 6 3 3 2 1 4 2 4 4 5 5 4 3 4 6 6 6 5 3 5 15 14 11 16 15 15 12 9 9 10 14 13 12 12 12 12
9 8 8 8 7 6 7 7 5 2 2 4 2 1 2 4 6 6 4 4 6 6 7 7 8 9 9 8 9 12 15 14 15 15 15 13 12 12 13 13 13 13 12
8 9 9 8 7 7 6 7 6 6 4 3 5 3 2 3 1 2 5 5 5 4 7 8 10 11 11 7 9 12 14 12 11 12 13 13 11 12 13 13 15 13 12
8 8 9 9 8 6 9 7 6 4 5 3 2 5 7 2 2 2 2 3 4 5 6 6 8 9 10 8 10 13 14 12 12 11 11 12 12 11 12 13 13 12 11
7 8 9 10 8 7 9 8 8 6 5 5 6 1 6 5 4 3 1 1 4 4 5 6 4 4 7 8 5 7 13 14 13 12 11 10 11 11 11 11 11 12 13
5 7 9 9 9 9 9 8 7 8 7 8 3 4 4 4 2 1 1 2 4 4 5 6 6 6 5 4 9 10 12 12 11 10 9 10 10 10 10 11 10 11 12
4 6 8 8 7 8 8 9 9 8 7 5 5 6 6 6 2 2 1 2 2 2 4 7 6 5 6 6 5 10 14 11 10 9 10 8 8 7 9 8 8 11 12
3 5 6 7 9 9 7 9 5 6 6 5 5 3 4 2 1 1 2 1 3 1 2 3 4 5 4 5 5 14 7 11 10 9 7 7 8 9 9 11 10 6 5
1 3 6 6 7 9 8 8 6 7 6 5 4 3 3 3 4 3 4 3 2 2 2 1 2 2 2 4 6 7 6 10 9 8 8 7 8 7 6 5 4 4 3
4 2 3 5 5 6 8 8 7 7 6 4 4 4 2 2 3 5 5 1 2 1 1 1 2 5 6 5 7 8 9 11 7 9 8 7 8 8 7 5 5 6 8
6 6 4 6 5 5 5 6 5 7 6 6 4 3 5 4 4 3 3 1 2 2 2 1 1 3 3 5 4 6 6 6 6 11 12 11 11 10 11 11 12 13 14
4 4 6 5 7 8 7 6 6 6 7 6 5 5 7 6 3 4 2 3 4 3 3 5 1 1 3 4 4 7 4 6 6 10 11 11 11 11 13 14 13 13 13
5 6 6 7 9 8 8 8 9 9 9 9 9 9 7 7 7 7 6 5 3 2 2 4 3 2 2 1 4 5 6 5 4 10 12 13 13 12 12 13 13 12 11
5 7 7 8 8 8 8 8 9 9 9 9 8 8 7 7 7 7 6 6 4 4 3 1 4 2 2 3 2 4 3 2 4 4 6 7 10 11 11 12 12 11 10
6 7 7 8 8 8 6 7 8 8 8 9 8 7 7 9 13 11 5 8 8 4 2 1 3 3 6 3 2 1 2 4 2 3 4 4 4 4 5 9 11 11 10
6 7 6 7 6 7 5 8 8 7 7 7 7 6 5 8 9 10 10 17 14 5 2 5 2 4 6 3 3 3 2 2 2 4 3 3 6 5 5 5 12 11 10
12 12 11 9 10 9 12 5 7 6 6 6 7 5 4 3 2 5 12 17 16 19 17 10 9 6 7 6 5 5 5 4 3 2 2 1 2 3 5 6 10 11 10
11 10 12 11 9 10 14 9 5 7 8 11 9 9 8 5 6 5 10 10 11 13 13 9 11 9 7 8 6 3 2 1 2 4 3 1 4 3 4 4 12 11 9
11 12 11 10 10 11 16 14 9 11 11 11 11 11 8 8 11 10 10 9 8 8 10 13 12 12 11 10 9 6 5 4 2 2 5 3 1 2 2 4 5 12 11
12 11 12 12 14 12 20 20 7 7 9 8 9 10 18 12 17 14 8 8 9 7 6 3 3 3 3 6 9 7 5 4 2 0 3 3 4 2 3 1 2 4 6
Wind_Direction
225 193 217 192 202 206 193 182 207 207 200 214 219 216 201 193 213 157 163 178 172 174 181 184 191 196 197 189 193 189 185 179 187 199 191 190 187 189 183 177 180 183 181
200 217 198 211 212 220 203 177 195 196 207 218 217 230 214 202 213 215 177 180 178 182 186 191 193 202 200 199 203 197 185 182 186 203 208 208 198 196 193 187 188 188 187
224 212 212 210 205 175 225 169 168 183 214 215 222 203 206 215 200 184 161 183 183 185 193 199 201 208 200 197 203 202 185 179 192 205 207 206 201 201 201 199 198 197 193
203 205 221 194 187 204 186 192 169 198 215 218 208 213 212 223 232 204 182 120 198 183 195 200 206 208 202 206 203 196 175 182 201 207 208 211 203 202 205 206 206 204 202
204 212 233 222 174 213 176 197 193 176 216 235 227 195 267 198 201 237 209 168 197 163 172 196 197 220 213 215 215 199 180 204 205 209 213 218 211 207 209 207 209 208 206
186 215 233 232 178 186 187 196 189 212 195 200 219 210 227 203 194 246 268 191 179 180 163 151 173 240 229 219 223 208 188 211 205 214 219 224 216 210 207 208 205 206 209
211 196 220 229 204 201 180 184 191 217 235 178 221 257 253 252 221 203 212 221 224 179 164 160 156 170 292 232 224 205 202 205 201 206 201 242 222 212 205 208 207 208 209
227 208 205 230 202 200 189 185 182 141 183 205 189 146 259 238 230 208 173 219 212 184 178 171 173 200 214 221 211 204 199 203 209 208 200 217 222 205 197 199 206 207 210
239 213 203 217 220 190 192 183 180 174 164 211 211 197 231 224 181 194 192 201 235 188 170 185 190 199 203 212 203 198 201 200 210 206 202 214 205 196 199 193 219 209 209
234 223 206 209 220 195 199 178 177 178 140 224 239 252 248 202 159 249 183 207 200 196 184 191 209 188 194 189 199 192 202 197 201 207 205 204 201 199 204 210 216 215 207
229 227 206 204 208 207 201 182 174 180 159 183 210 205 247 222 202 251 65 232 241 185 187 189 199 194 199 209 179 196 209 193 198 209 210 220 211 205 201 209 217 216 214
211 217 215 203 200 206 186 181 179 186 178 207 181 260 270 243 218 212 259 208 201 197 195 201 174 185 193 191 195 192 185 193 196 202 214 221 210 203 209 210 219 225 227
188 205 209 202 199 207 185 180 180 186 198 191 190 204 215 227 228 224 231 253 188 210 196 201 173 184 190 196 189 173 188 187 186 195 211 223 227 212 214 198 224 232 231
202 201 196 202 200 194 197 195 177 177 186 162 192 179 300 266 204 236 233 312 311 175 229 25 180 189 189 179 194 172 174 178 185 195 198 211 200 204 208 206 210 208 215
164 191 201 199 209 196 187 186 151 143 144 142 199 177 219 271 318 272 219 241 226 337 275 218 258 74 212 131 150 168 159 174 173 173 184 194 194 193 186 175 165 165 166
42 177 201 176 193 184 187 149 138 148 148 142 171 196 209 257 290 344 312 359 323 151 164 120 9 36 29 96 82 86 93 91 98 123 122 120 113 121 132 132 116 94 84
51 43 71 114 130 139 142 150 126 148 137 151 157 183 233 258 268 193 301 336 31 333 111 88 105 57 65 115 100 100 89 89 83 86 89 87 89 95 99 98 93 88 82
101 101 104 82 94 89 67 84 121 91 83 76 74 69 39 8 313 332 294 334 55 37 103 137 117 136 63 79 160 112 140 103 103 93 95 95 93 94 95 94 88 84 80
71 52 53 107 113 93 81 80 81 79 68 59 52 55 36 33 29 351 9 25 14 6 64 136 160 130 125 207 95 71 84 106 101 115 94 99 110 112 112 110 104 94 87
93 79 68 63 71 97 96 91 95 83 74 63 51 44 36 41 41 9 348 9 355 359 17 165 135 136 131 160 126 129 134 171 155 126 113 144 135 134 131 121 111 104 96
131 116 112 101 96 93 91 92 90 93 93 83 66 55 43 46 55 50 35 2 357 331 10 336 204 178 162 158 138 73 180 133 52 47 130 163 153 151 147 130 121 113 98
113 122 115 109 76 77 72 110 113 105 96 94 98 92 85 74 74 86 81 55 35 347 9 206 119 103 38 69 38 27 44 102 113 10 352 322 163 176 156 138 116 128 120
74 76 70 67 58 44 11 157 136 121 119 126 139 146 130 114 245 131 62 52 31 19 45 47 69 55 61 21 37 47 39 25 76 219 31 308 50 89 87 131 152 145 153
76 75 67 63 61 35 29 25 170 132 86 58 47 64 73 45 13 60 85 71 57 46 41 57 62 51 47 14 13 13 45 287 249 70 61 16 28 10 2 114 161 170 177
78 72 66 63 63 34 17 33 76 77 71 64 55 40 52 39 30 73 95 98 85 81 61 74 83 84 66 50 36 25 10 9 6 72 17 16 170 232 270 264 172 189 213
77 67 61 47 50 46 20 32 79 108 103 87 63 51 48 55 50 45 66 82 71 41 50 65 88 68 79 65 53 50 2 339 352 236 31 344 358 352 316 171 93 191 233